Notices

What's New in latest Release from April 7th, 2021:

- Updated Glossary, including Speed of Maximum Gust, and Total Hourly Precipitation

- Updated national and regional climate services offices contacts and prices information

- Addition of station inventory lists for 1981-2010, 1971-2000, and 1961-1990 Normals.

If you haven't already, please take our survey and provide feedback about our website: https://eccc.sondage-survey.ca/f/LanguageSelection.aspx?s=442ca660-fcf1-47c0-95a9-59707d6fd709

Hourly Data Report for April 17, 2018

MIRAMICHI RCS
NEW BRUNSWICK
Current Station Operator: ECCC - MSC

47°00'34.000" N
65°27'54.000" W
33.00 m
8100989
71744
ACQ

Download Data

Hourly Data (April 2018)
Hourly Data Report for April 17, 2018
TIME
LST
Temp Definition
°C
Dew Point Definition
°C
Rel Hum Definition
%
Precip. Amount Definition
mm

Wind Dir Definition
10's deg

Wind Spd Definition
km/h
Visibility Definition
km
Stn Press Definition
kPa
Hmdx Definition


Wind Chill Definition


Weather Definition


00:00 0.6 -3.9 72 0.0 7 17   101.73     LegendNANA
01:00 0.2 -2.8 81 0.0 6 19   101.60     LegendNANA
02:00 -0.1 -2.4 84 0.3 6 21   101.45   -6 LegendNANA
03:00 0.0 -2.2 85 0.9 7 22   101.29   -6 LegendNANA
04:00 -0.1 -1.6 90 1.4 7 11   101.23   -4 LegendNANA
05:00 0.0 -1.3 91 0.6 7 5   101.09   -2 LegendNANA
06:00 0.1 -1.2 91 0.2 8 4   100.94     LegendNANA
07:00 0.2 -0.9 92 2.3 8 4   100.83     LegendNANA
08:00 0.5 -0.5 93 2.6 8 5   100.59     LegendNANA
09:00 0.5 -0.4 93 3.3 8 4   100.49     LegendNANA
10:00 0.6 -0.4 94 1.7 7 4   100.34     LegendNANA
11:00 0.6 -0.2 94 1.2 7 31   100.20     LegendNANA
12:00 0.6 -0.1 95 0.2 7 32   99.98     LegendNANA
13:00 0.9 0.2 96 2.6 7 19   99.93     LegendNANA
14:00 1.3 0.8 96 2.7 5 19   99.80     LegendNANA
15:00 1.5 0.9 96 1.7 5 17   99.69     LegendNANA
16:00 2.1 1.4 95 1.4 7 20   99.54     LegendNANA
17:00 1.2 0.7 97 0.3 4 18   99.44     LegendNANA
18:00 0.9 0.4 97 1.7 4 15   99.37     LegendNANA
19:00 0.5 0.1 97 0.3 4 15   99.27     LegendNANA
20:00 0.5 0.2 97 0.4 3 9   99.27     LegendNANA
21:00 0.5 0.1 97 1.3 3 13   99.18     LegendNANA
22:00 0.6 0.1 97 0.0 35 3   99.17     LegendNANA
23:00 0.6 0.1 97 0.4 32 2   99.14     LegendNANA

Notes on Data Quality.

Legend

  • E = Estimated
  • M = Missing
  • NA = Not Available*
  • [empty] = Indicates an unobserved value
Date modified: